Lid_Strength_Index
1 1 1 1 1 0 0 -0 -0 -1 -1 -1 -1 -1 -1 -1 -0 1 5 2 2 -1 1 5 6 6 6 7 7 9 13 14 13 13 12 10 10 9 9 9 9 8 9 8 7
1 1 1 1 1 1 0 0 -0 -0 -1 -1 -1 -1 -1 -1 2 4 1 -1 -2 -1 5 7 8 7 9 8 8 10 13 12 12 11 12 10 10 10 10 10 10 9 8 7 7
0 1 1 1 1 1 0 0 -0 -0 -1 -1 -1 -1 -1 0 5 5 -1 -2 -2 0 4 6 6 7 10 10 10 11 13 11 11 9 9 10 10 9 10 12 11 10 9 8 8
-0 0 1 1 1 1 0 0 -0 -0 -0 -1 -1 -1 -0 2 11 4 -1 -2 -2 3 5 6 7 10 11 11 9 12 10 10 9 9 10 10 9 10 10 10 9 9 8 9 9
-0 0 0 0 0 0 0 -0 -0 -0 -0 -1 -1 -1 2 7 7 2 -1 -1 3 5 6 7 9 9 11 11 10 11 10 9 9 9 10 9 10 11 11 10 9 9 9 9 9
-0 0 0 0 0 0 -0 -0 -0 -0 -0 -1 -1 -1 4 10 3 2 2 3 4 6 7 7 8 8 10 10 11 10 10 10 9 9 9 10 11 10 11 10 10 9 10 10 10
-0 -0 0 0 0 -0 -0 -0 -0 -0 -0 -1 -1 1 5 7 2 3 4 5 5 5 6 6 7 9 9 11 9 10 12 10 10 10 10 10 12 11 10 10 10 11 11 11 10
-0 -0 -0 -0 -0 -0 -0 -0 -0 -0 -0 -1 -0 3 7 3 3 3 4 5 5 5 5 6 6 8 9 9 10 12 13 14 11 11 11 11 14 10 11 11 11 12 12 12 11
1 1 1 -0 0 -0 -0 -0 -0 -0 -0 -1 3 5 8 2 4 3 4 6 6 6 6 5 7 9 10 12 13 13 16 15 13 11 11 12 14 12 11 11 12 12 12 12 12
1 1 1 1 1 1 -0 -0 0 1 0 1 2 8 6 7 5 4 5 5 7 7 8 8 10 12 12 13 16 15 16 15 15 12 13 14 14 12 12 12 12 12 12 12 12
1 1 1 1 1 1 2 3 5 6 4 7 7 7 6 6 5 5 5 6 7 9 11 10 13 14 12 13 12 13 14 15 14 11 13 14 14 12 12 13 14 13 13 13 13
1 1 1 0 0 1 2 5 5 5 8 5 5 5 5 6 9 6 5 8 9 12 10 12 14 11 11 11 12 13 14 15 13 11 13 14 14 12 12 12 12 12 13 13 14
1 1 1 1 1 2 3 4 4 5 9 7 6 6 5 6 9 8 7 8 11 12 12 14 12 10 11 12 13 14 14 14 14 12 14 14 15 14 12 12 12 11 12 13 14
2 1 1 1 3 3 4 2 3 3 12 10 8 7 7 7 9 6 7 8 10 12 11 12 10 11 12 13 12 15 12 12 13 15 17 15 18 15 14 13 13 11 13 14 14
2 2 1 1 3 4 3 3 3 5 20 9 9 6 7 8 9 10 8 10 12 12 12 13 13 13 13 13 12 14 12 13 14 16 17 17 18 16 14 13 13 12 15 15 14
2 2 1 1 2 2 2 2 3 13 19 12 10 10 10 9 11 10 10 10 10 12 12 13 12 13 12 12 12 12 13 14 15 16 19 17 17 15 14 13 12 13 15 15 15
2 2 2 1 5 1 1 4 13 18 10 12 12 10 11 12 12 12 13 14 14 16 16 14 13 13 12 14 13 13 15 19 20 21 19 16 17 14 13 13 12 14 14 15 15
3 2 2 1 2 1 2 9 18 13 13 10 10 10 12 11 12 12 14 15 13 14 16 17 17 13 12 13 14 15 15 18 22 21 20 18 19 16 14 14 13 13 14 15 15
3 2 3 3 1 1 7 14 15 12 10 11 10 13 13 10 11 13 14 14 13 12 15 15 15 12 12 12 12 15 16 13 17 20 21 18 16 14 15 15 15 15 15 16 16
4 3 3 1 1 3 9 13 12 8 8 9 14 11 15 13 12 13 14 12 12 11 10 11 15 14 14 11 12 13 13 17 16 21 22 19 18 16 16 16 16 16 16 16 17
4 7 4 0 1 7 13 12 10 7 7 10 11 12 12 13 12 13 13 11 10 10 10 12 12 15 14 15 15 14 15 14 14 16 20 22 18 15 14 14 15 15 15 16 17
5 10 3 1 9 8 11 11 8 9 7 9 9 10 11 11 12 12 13 11 9 9 12 11 12 16 14 13 12 11 13 13 17 19 18 19 16 15 15 14 14 15 15 15 16
7 7 2 2 12 11 9 9 8 9 9 10 11 9 9 11 14 12 11 8 8 9 10 10 14 18 17 13 12 14 13 12 12 15 17 19 16 15 14 15 15 15 15 15 17
6 10 7 6 6 9 11 10 11 8 9 8 9 9 10 12 10 12 12 9 8 8 8 8 14 15 18 16 14 17 15 13 13 17 16 16 14 15 16 15 15 15 15 15 16
6 9 8 11 10 9 9 10 11 11 8 8 10 10 11 14 13 13 11 10 9 8 9 10 15 13 13 12 13 16 15 14 14 14 16 14 14 12 13 14 13 14 15 15 16
7 8 8 8 9 9 9 12 11 10 9 11 11 10 10 12 11 13 11 11 11 11 10 10 15 13 15 12 13 14 13 12 13 13 13 13 14 10 12 12 13 14 14 15 15
5 7 6 8 10 10 11 10 10 9 9 9 9 10 11 10 9 9 9 9 10 11 12 13 13 15 17 14 14 17 14 13 13 11 12 15 12 10 12 12 12 13 14 14 14